Location: Bad Peterstal-Griesbach
(48.4288°N, 8.2101°E)
Time: 21:05:51
(UTC+00:00)

Daily predictions for brighter satellites

Satellite Brightness Start Highest point End
(mag) Time Altitude Azimuth Time Altitude Azimuth Time Altitude Azimuth
NOSS 0 Rocket 4.5 18:08:12 10° NNW 18:14:05 41° NE 18:19:52 10° ESE
Cosmos 1420 Rocket 4.1 18:11:29 10° S 18:16:36 58° ESE 18:21:42 10° NNE
Cosmos 2173 Rocket 4.1 18:12:32 10° N 18:18:52 62° ENE 18:25:10 10° SSE
Okean-O 3.9 18:16:08 10° ESE 18:19:38 23° ENE 18:23:07 10° N
PAYLOAD B 4.5 18:14:12 10° S 18:19:43 77° WSW 18:25:20 10° NNW
Cosmos 1263 4.3 18:17:26 10° S 18:20:56 63° E 18:23:58 10° NNE
Timation 1 Rocket 4.5 18:16:44 10° S 18:22:32 55° ESE 18:28:25 10° NE
Okean O Rocket 1.6 18:23:22 10° SSE 18:27:45 66° ENE 18:32:07 10° N
DMSP B5D1-3 4.5 18:23:15 10° NNE 18:28:26 72° ESE 18:33:33 10° S
Cosmos 2242 Rocket 4.2 18:24:57 10° N 18:29:17 39° ENE 18:33:34 10° SE
Cosmos 2100 Rocket 4.0 18:23:02 10° N 18:29:26 76° E 18:35:45 10° SSE
YAOGAN 1 3.2 18:25:39 10° S 18:29:55 62° WSW 18:34:13 10° NNW
GEOS 3 Rocket 3.7 18:24:40 10° NE 18:30:04 69° SE 18:35:26 10° SSW
CSL-04 Rocket 4.1 18:26:59 10° SE 18:32:13 44° ENE 18:37:28 10° N
ISS -3.2 18:29:02 10° W 18:32:20 55° NNW 18:35:39 10° ENE
In-Cosmos 22 4.3 18:27:11 10° NNW 18:32:51 90° WSW 18:38:36 10° S
USA 215 3.7 18:26:40 10° NE 18:33:09 66° NNW 18:39:36 10° WSW
EXPRESS MD2 4.1 18:32:34 10° W 18:34:20 20° SSW 18:36:05 10° SSE
Cosmos 676 Rocket 4.0 18:29:13 10° NNW 18:34:28 90° WSW 18:39:44 10° SSE
SL-27 R/B 2.1 18:31:27 10° SSW 18:34:43 70° ESE 18:37:59 10° NNE
Cosmos 1452 Rocket 4.3 18:30:21 10° SSE 18:34:51 30° E 18:39:24 10° NE
KORONAS-FOTON 3.7 18:31:39 10° N 18:35:29 88° E 18:39:18 10° S
Cosmos 2237 Rocket 2.9 18:33:37 10° NNW 18:38:50 36° NE 18:43:20 13° ESE
Exosat Rocket 3.8 18:35:52 10° SSW 18:41:01 79° ESE 18:47:39 10° NNE
USA 186 1.8 18:41:13 10° SSE 18:44:13 51° ENE 18:47:17 10° N
Okean 3 3.9 18:44:24 10° NNW 18:48:35 66° W 18:52:47 10° S
Meteor 1-21 4.2 18:42:56 10° NNW 18:48:36 90° S 18:54:15 10° S
Cosmos 1741 Rocket 4.3 18:45:05 10° NNW 18:50:11 50° ENE 18:54:39 13° SE
CZ-4B R/B 3.9 18:48:05 10° S 18:53:39 58° WSW 18:59:14 10° NNW
Cosmos 1707 3.7 18:49:59 10° NNW 18:53:40 48° W 18:57:18 10° S
Cosmos 2322 4.1 18:49:19 10° NNW 18:54:56 64° WSW 19:00:30 10° SSE
IRS-1C Rocket 4.5 18:50:12 11° SE 18:55:01 44° ENE 19:00:01 10° N
Okean 1-7 3.7 18:50:51 10° NNW 18:55:10 58° W 18:59:25 10° S
Cosmos 1674 3.5 18:54:27 10° NNW 18:58:05 53° W 19:01:42 10° S
Lacrosse 5 rocket 2.5 18:54:56 10° S 18:58:18 22° SE 18:59:08 21° ESE
Cosmos 1805 3.4 18:54:42 10° SSE 18:58:20 44° E 19:02:00 10° NNE
Cosmos 1980 4.0 18:54:45 10° NNW 19:00:19 52° NE 19:04:23 18° SE
Cosmos 2219 Rocket 3.3 18:56:04 10° NW 19:01:28 46° WSW 19:06:50 10° S
Cosmos 1933 Rocket 4.0 18:58:24 10° SSW 19:02:42 66° W 19:07:02 10° N
Cosmos 1975 2.9 18:58:49 10° SSW 19:02:45 79° W 19:06:46 10° N
SJ-6B 2.9 18:59:09 10° S 19:03:05 77° WSW 19:06:57 10° NNW
Cosmos 2333 Rocket 4.1 18:58:19 10° NW 19:03:18 31° WSW 19:08:14 10° SSW
Cosmos 1726 2.0 19:04:22 10° S 19:07:47 54° E 19:11:14 10° NNE
Cosmos 1864 Rocket 4.4 19:01:51 10° N 19:08:06 87° E 19:14:14 10° S
Cosmos 2233 Rocket 4.0 19:02:02 10° N 19:08:06 58° ENE 19:14:11 10° SSE
CSL-04 Debris 4.2 19:03:08 10° SSE 19:08:34 89° W 19:14:02 10° NNW
Ariane Rocket 4.3 19:09:42 20° E 19:11:14 23° ENE 19:15:10 10° N
BREEZE-M DEB (TANK) 4.1 19:09:34 10° W 19:12:03 16° SW 19:13:45 10° S
Cosmos 1869 Rocket 3.4 19:07:59 10° S 19:12:17 83° E 19:16:39 10° N
Cosmos 2061 Rocket 4.0 19:05:50 10° N 19:12:19 79° E 19:18:44 10° SSE
Cosmos 1900 4.5 19:08:31 10° SW 19:13:28 77° NW 19:18:25 10° NE
COSMOS 2428 3.3 19:09:02 10° NW 19:14:40 59° WSW 19:20:17 10° S
Landsat 5 3.8 19:11:47 10° NNE 19:15:24 37° E 19:17:14 23° SSE
SL-14 R/B 3.1 19:12:51 10° N 19:16:43 76° ENE 19:19:24 19° SSE
USA 281 4.3 19:14:15 10° NNE 19:20:29 47° NW 19:26:41 10° SW
Cosmos 2297 Rocket 2.5 19:15:28 10° S 19:20:44 43° ESE 19:26:03 10° NE
NOSS 3-2 (A) 4.4 19:15:06 10° NW 19:22:32 69° SW 19:30:28 13° SSE
Cosmos 1867 3.5 19:19:05 10° SSW 19:24:24 60° ESE 19:29:47 10° NE
Resurs 01 Rocket 1.6 19:25:55 28° SE 19:28:08 64° ENE 19:32:31 10° N
Cosmos 1725 Rocket 4.2 19:23:10 10° NNW 19:29:19 71° W 19:35:28 10° S
Cosmos 1733 3.8 19:28:46 10° SSW 19:32:28 57° WNW 19:36:13 10° N
CZ-4C R/B 3.7 19:26:28 10° NW 19:32:34 36° NNE 19:36:50 21° E
CENTAUR R/B 3.7 19:24:56 10° NW 19:33:01 60° WSW 19:41:24 12° SSE
NOSS 3-2 (C) 4.0 19:25:42 10° NW 19:33:09 89° NE 19:38:47 24° SE
Cosmos 1271 Rocket 4.1 19:36:59 23° NE 19:36:59 23° NE 19:38:45 10° NNE
MOS 1 4.3 19:33:10 27° SE 19:36:19 64° ENE 19:41:58 10° N
Cosmos 2227 Rocket 2.7 19:31:29 10° S 19:36:35 35° ESE 19:41:41 10° NE
CZ-4 R/B 4.0 19:34:39 10° SW 19:37:24 19° W 19:40:12 10° NW
Terra 3.3 19:42:45 20° NE 19:42:45 20° NE 19:45:57 10° NNE
Iridium 4 Rocket 3.9 19:38:52 10° NNW 19:42:54 48° W 19:46:54 10° SSW
Geosat 4.0 19:40:51 28° SSE 19:43:32 78° WSW 19:48:35 10° NNW
USA 238 DEB 3.9 19:39:28 10° NW 19:46:48 88° NE 19:50:50 32° SE
USA 238 3.9 19:39:34 10° NW 19:46:53 87° NE 19:50:54 32° SE
MetOp-A 4.1 19:46:22 40° SE 19:48:08 63° ENE 19:53:17 10° N
SL-16 R/B 2.8 19:42:58 10° NNW 19:48:21 41° NE 19:49:39 36° E
Cosmos 1674 Rocket 3.5 19:48:18 10° N 19:52:36 58° ENE 19:52:42 58° E
Cosmos 1733 Rocket 2.8 19:53:01 41° S 19:54:29 82° E 19:58:49 10° NNE
Okean-O 3.6 19:52:19 14° SSW 19:55:49 44° W 20:00:06 10° NNW
CARTOSAT-1 3.4 19:58:45 67° SSE 19:59:18 83° ENE 20:03:37 10° NNW
Meteor 2-13 Rocket 4.3 19:53:13 10° S 19:59:20 78° E 20:05:32 10° NNE
SPOT 1/Viking Rocket 4.0 19:55:57 20° S 19:59:30 61° WSW 20:04:40 10° NNW
Cosmos 1110 Rocket 4.1 19:56:22 10° SSW 20:01:34 74° WNW 20:06:47 10° NNE
SPOT 5 3.3 20:02:23 42° ENE 20:02:23 42° ENE 20:06:39 10° N
Cosmos 1378 Rocket 3.4 19:59:26 10° N 20:03:51 79° E 20:04:03 76° ESE
Okean O Rocket 4.5 20:01:57 10° SW 20:04:31 15° W 20:07:05 10° NW
Cosmos 2221 Rocket 3.5 20:00:28 10° N 20:04:55 88° W 20:05:26 70° S
Cosmos 1464 Rocket 4.1 20:00:57 10° N 20:07:13 57° ENE 20:08:27 49° ESE
BREEZE-M DEB (TANK) 3.0 20:04:20 10° WNW 20:08:22 57° W 20:08:22 57° W
ISS -2.5 20:06:10 10° WNW 20:08:42 40° NW 20:08:42 40° NW
USA 215 4.2 20:10:32 15° ENE 20:15:38 43° N 20:21:43 10° WNW
ADEOS Rocket 3.5 20:15:26 45° E 20:16:25 48° ENE 20:23:06 10° N
Cosmos 1766 4.0 20:17:37 48° W 20:17:59 50° WNW 20:21:42 10° N
Cosmos 1891 Rocket 4.3 20:11:56 10° N 20:18:06 83° E 20:19:47 51° SSE
Cosmos 1331 Rocket 4.5 20:13:31 10° SW 20:18:36 59° WNW 20:23:43 10° NNE
Meteor 1-22 Rocket 4.3 20:20:16 61° ESE 20:20:45 63° E 20:26:45 10° NNE
Cosmos 2237 Rocket 3.1 20:17:40 10° NW 20:23:00 44° WSW 20:25:11 30° SSW
H-2A R/B 2.8 20:23:55 67° N 20:23:55 67° N 20:27:50 10° NNW
Meteor 1-15 Rocket 4.1 20:24:42 57° S 20:25:59 83° E 20:31:54 10° NNE
MetOp-B 4.2 20:29:53 60° SSW 20:30:45 72° WSW 20:36:08 10° NNW
Cosmos 2346 Rocket 4.3 20:31:21 52° S 20:33:00 89° E 20:39:15 10° N
ATLAS CENTAUR R/B 4.2 20:18:24 10° WSW 20:33:45 75° NNW 20:40:10 13° NE
Cosmos 968 Rocket 4.0 20:31:48 10° NNW 20:36:47 50° WSW 20:37:26 47° SW
Lacrosse 5 rocket 3.1 20:32:36 10° WSW 20:34:34 26° WSW 20:34:34 26° WSW
SJ 16-02 2.7 20:33:35 10° N 20:36:14 31° NNE 20:36:14 31° NNE
Meteor 1-12 Rocket 4.3 20:38:17 49° SSW 20:39:55 76° WNW 20:45:40 10° N
ERS-1 Rocket 3.3 20:44:49 61° N 20:44:49 61° N 20:49:00 10° NNW
FALCON 9 R/B 4.0 20:29:23 10° WSW 20:44:12 33° SSW 20:45:15 32° S
Meteor 1-24 Rocket 3.8 20:40:53 10° NNW 20:46:49 78° W 20:47:15 74° SW
Ariane Rocket 3.4 20:49:52 58° W 20:49:52 58° W 20:54:50 10° NNW
BREEZE-M DEB (TANK) 3.3 20:45:46 10° WNW 20:50:43 64° W 20:50:43 64° W
Meteor 2-8 Rocket 4.5 20:46:36 10° NNW 20:52:43 72° W 20:53:21 66° SW
Cosmos 1943 4.1 20:50:05 10° NNW 20:54:31 38° NNE 20:54:31 38° NNE
Meteor 2-15 Rocket 4.4 20:50:43 10° NNW 20:56:53 78° W 20:57:03 78° WSW
Spot 2 Rocket 4.0 21:01:35 58° NW 21:01:35 58° NW 21:05:45 10° NNW
Cosmos 2297 Rocket 3.5 20:59:38 10° WSW 21:04:51 37° NW 21:10:07 10° NNE
Resurs 01 Rocket 4.1 21:03:26 13° WSW 21:05:02 16° W 21:07:42 10° NW
Cosmos 2034 Rocket 4.0 21:01:56 10° NNW 21:07:51 76° WNW 21:07:51 76° WNW
SPOT 3 Rocket 4.3 21:12:40 48° WNW 21:12:40 48° WNW 21:17:07 10° NNW
Cosmos 2219 3.8 21:13:55 53° NNW 21:13:55 53° NNW 21:18:30 10° NNE
ATLAS 3B R/B 3.9 21:09:14 10° NW 21:16:06 37° NNE 21:17:41 34° NE
Terra 3.2 21:21:29 36° NW 21:21:29 36° NW 21:24:25 10° NNW
Cosmos 2227 Rocket 3.2 21:15:19 11° SW 21:20:32 44° NW 21:25:58 10° NNE
CZ-4C R/B 2.8 21:14:45 10° NW 21:21:55 88° SW 21:21:59 88° S
SL-16 R/B 3.4 21:27:12 10° NW 21:31:32 36° W 21:31:32 36° W
USA 215 3.9 21:57:51 49° NNE 21:57:57 49° NNE 22:04:12 10° WNW
ADEOS Rocket 4.2 22:02:22 37° W 22:02:22 37° W 22:08:26 10° NNW
Cosmos 2263 Rocket 4.1 22:13:19 23° NNE 22:13:19 23° NNE 22:15:24 10° NNE
SJ 16-02 4.4 22:12:42 10° NW 22:13:07 12° NW 22:13:07 12° NW
ATLAS 2AS CENTAUR R/B 4.3 22:29:02 27° NE 22:29:02 27° NE 22:32:00 10° NE
ATLAS CENTAUR R/B 4.2 22:40:06 10° WNW 22:49:32 40° N 22:49:44 40° N
ATLAS 3B R/B 3.7 23:00:03 10° NW 23:04:56 45° NW 23:04:56 45° NW
Cosmos 2344 4.3 23:11:51 10° NW 23:18:50 62° WNW 23:18:50 62° WNW
